OBJECT F, 64053

Orbit data source: Space-Track

You're viewing an Uncataloged Satellite

Recently launched and/or uncataloged satellites may have evolving metadata. Metadata may include but not limited to: Owner, Maufacturer, Bus, Motor, and Mission.

OBJECT F, 64053 is a satellite owned by Youdian Daxue (CN) in SSO that was launched on Sat, 17 May 2025 UTC via a ZHUQUE-2E launch vehicle from the Jiuquan Satellite Launch Center, China (JSC). Unknown objects in Earth's orbit typically refer to objects detected orbiting the Earth but have not yet been identified or cataloged. These objects could be anything from previously untracked satellites, spent rocket stages, debris from satellite collisions, or even natural meteoroids temporarily captured by Earth's gravity.

Loading next visibility...
Identifier
64053, 2025-103F
Orbit
SSO
Country
Flag of CNCN / PRC
Related business
Flag of CNBeijing University of Posts and Telecommunications (CN)
Manufacturer
Changsha Tianyi
Mission
Operational Amateur Technology
Bus & Motor
TY, Unknown motor
Mass
~50 kg wet, ~50 kg dry
Launch date (UTC)
2025-05-17 (1 year ago)
Launch vehicle
ZHUQUE-2E
Launch site
Jiuquan Satellite Launch Center, China (JSC)
Object type
Unknown
Shape & HBR
Box + 2 Pan, 1.1 m
Radar Cross Section
0.255 m², Large (>1 m²)

Expand to show TLE details & history
Last TLE update: 5 hours ago

TLE from 5 hours ago
0 OBJECT F
1 64053U 25103F   26207.61610056  .00004092  00000-0  19718-3 0  9995
2 64053  97.3794 278.1927 0004099  54.9385 305.2234 15.19270178 66036
Epoch: 2026-07-26T14:47Z
TLE epoch observation values (Epoch: 2026-07-26T14:47:11.088Z)
Latitude
Longitude
112.08502°
Altitude
509.508 km
Speed
7.61 km/s
True Right ascension
18h 32m 46s
True Declination
0° 00' 00"
Sunlit
Object was in full shadow at epoch
Visualization orbit readout
Latitude
Unknown
Longitude
Unknown
Altitude
Unknown
Speed
Unknown
Apparent Right ascension
Unknown
Apparent Declination
Unknown
Sunlit
N/A
Visualization observer readout
Local Sidereal Time
08:40:29
Azimuth
Unknown
Elevation
Unknown
Doppler factor
Unknown
Orbital elements
Apogee altitude
507.832 km
Perigee altitude
502.189 km
Semi-major axis
6,883.148 km
Eccentricity
0.00041
Inclination
97.3794°
RAAN
278.1927°
Arg. of periapsis
54.9385°
True anomaly
305.18502°
Mean anomaly
305.2234°
Eccentric anomaly
305.20421°
Mean motion
3.80069 °/min
Orbital period
94.72 mins
BSTAR
0.00019718
Loading maneuver chart data...
Computing Atmospheric mass density...
Loading historical data...
Loading historical data...
Loading historical data...
Loading historical data...
Loading historical data...
Loading historical data...
Loading historical data...

Documentation

Showing up to 5 results
|